Custer, SD

5:14 PM MST on November 22, 2017 (GMT -0700)
Custer County

Weather History for KCUT - December, 2013

Change the Weather History Date:

Sunday, December 22, 2013

  Actual Average Record
Temperature  
Mean Temperature 10 °F 23 °F  
Max Temperature 22 °F 33 °F 62 °F (1954)
Min Temperature -3 °F 13 °F -29 °F (1983)
Degree Days  
Heating Degree Days 55 42  
Month to date heating degree days 1047 913  
Since 1 July heating degree days 3159 3094  
Cooling Degree Days 0 0  
Month to date cooling degree days 0 0  
Year to date cooling degree days 187 177  
Moisture  
Dew Point 4 °F    
Average Humidity 71    
Maximum Humidity 95    
Minimum Humidity 47    
Precipitation  
Precipitation T in 0.01 in 0.18 in (1966)
Month to date precipitation 0.89 0.26  
Year to date precipitation 22.31 18.83  
Sea Level Pressure  
Sea Level Pressure 30.10 in    
Wind  
Wind Speed 4 mph (WNW)    
Max Wind Speed 13 mph    
Max Gust Speed 17 mph    
Visibility 9 miles    
Events Snow    
T = Trace of Precipitation, MM = Missing Value Source: NWS Daily Summary

Daily Weather History Graph

Daily Weather History Graph

Search for Another Location

Airport or City:

Trip Planner

Search our weather history database for the weather conditions in past years. The results will help you decide how hot, cold, wet, or windy it might be!

Date:

Astronomy

Dec. 22, 2013 Rise Set
Actual Time 7:25 AM MST 4:20 PM MST
Civil Twilight 6:52 AM MST 4:53 PM MST
Nautical Twilight 6:16 AM MST 5:30 PM MST
Astronomical Twilight 5:41 AM MST 6:05 PM MST
Moon 9:45 PM MST (12/22) 10:14 AM MST (12/22)
Length of Visible Light 10h 01m
Length of Day
8h 55m
Waning Gibbous, 76% of the Moon is Illuminated
Dec 22
Waning Gibbous
Dec 25
Last Quarter
Jan 1
New
Jan 7
First Quarter
Jan 15
Full

Hourly Weather History & Observations

Time (MST) Temp. Windchill Dew Point Humidity Pressure Visibility Wind Dir Wind Speed Gust Speed Precip Events Conditions
12:53 AM 12.0 °F - 6.1 °F 77% 29.97 in 10.0 mi Calm Calm - N/A   Overcast
1:53 AM 12.9 °F - 3.0 °F 65% 29.97 in 10.0 mi Calm Calm - N/A   Mostly Cloudy
2:53 AM 12.0 °F - 1.9 °F 64% 30.00 in 10.0 mi Calm Calm - N/A   Mostly Cloudy
3:53 AM 12.9 °F 5.2 °F 1.9 °F 62% 30.01 in 10.0 mi WNW 4.6 mph - N/A   Mostly Cloudy
4:53 AM 12.9 °F 6.9 °F 3.0 °F 65% 30.04 in 10.0 mi WNW 3.5 mph - N/A   Mostly Cloudy
5:53 AM 12.0 °F 5.9 °F 3.0 °F 67% 30.05 in 10.0 mi North 3.5 mph - N/A   Scattered Clouds
6:53 AM 10.9 °F -0.8 °F 3.0 °F 70% 30.09 in 10.0 mi WNW 8.1 mph - N/A   Overcast
7:53 AM 12.9 °F 5.2 °F 6.1 °F 74% 30.08 in 10.0 mi West 4.6 mph - N/A   Overcast
8:53 AM 17.1 °F 6.6 °F 7.0 °F 65% 30.06 in 10.0 mi WNW 8.1 mph - N/A   Partly Cloudy
9:53 AM 19.9 °F 13.4 °F 6.1 °F 55% 30.07 in 10.0 mi North 4.6 mph - N/A   Scattered Clouds
10:53 AM 21.9 °F 12.5 °F 5.0 °F 48% 30.08 in 10.0 mi NW 8.1 mph - N/A   Partly Cloudy
11:53 AM 21.0 °F 13.4 °F 8.1 °F 57% 30.05 in 10.0 mi North 5.8 mph - N/A   Overcast
12:53 PM 21.0 °F 13.4 °F 8.1 °F 57% 30.06 in 10.0 mi Variable 5.8 mph - N/A   Overcast
1:53 PM 17.1 °F 8.7 °F 10.0 °F 74% 30.10 in 3.0 mi SE 5.8 mph - 0.00 in Snow Light Snow
1:58 PM 15.8 °F 7.2 °F 8.6 °F 73% 29.89 in 1.8 mi SE 5.8 mph - 0.00 in Snow Light Snow
2:11 PM 15.8 °F - 10.4 °F 79% 29.90 in 3.0 mi Calm Calm - 0.00 in Snow Light Snow
2:29 PM 15.8 °F 10.2 °F 10.4 °F 79% 29.90 in 8.0 mi ESE 3.5 mph - 0.00 in   Overcast
2:43 PM 17.6 °F 12.3 °F 12.2 °F 79% 29.91 in 10.0 mi South 3.5 mph - 0.00 in   Overcast
2:53 PM 16.0 °F - 10.9 °F 81% 30.13 in 10.0 mi Calm Calm - 0.00 in   Overcast
3:53 PM 15.1 °F 9.4 °F 9.0 °F 77% 30.16 in 10.0 mi Variable 3.5 mph - N/A   Overcast
4:53 PM 10.9 °F 2.9 °F 8.1 °F 88% 30.21 in 10.0 mi ENE 4.6 mph - N/A   Overcast
5:53 PM 8.1 °F -0.5 °F 3.0 °F 80% 30.26 in 10.0 mi Variable 4.6 mph - N/A   Overcast
6:53 PM 9.0 °F 0.6 °F -2.0 °F 61% 30.28 in 10.0 mi WNW 4.6 mph - N/A   Overcast
7:53 PM 3.9 °F -5.3 °F 1.0 °F 88% 30.30 in 10.0 mi South 4.6 mph - N/A   Mostly Cloudy
8:53 PM 3.0 °F -9.3 °F -0.0 °F 87% 30.32 in 10.0 mi WSW 6.9 mph - N/A   Overcast
9:53 PM 1.9 °F -9.2 °F -0.9 °F 88% 30.31 in 10.0 mi WSW 5.8 mph - N/A   Overcast
10:43 PM -0.4 °F - -4.0 °F 85% 30.07 in 10.0 mi Calm Calm - N/A   Overcast
10:53 PM -0.0 °F - -4.0 °F 83% 30.33 in 10.0 mi Calm Calm - N/A   Mostly Cloudy
11:19 PM 1.4 °F - -4.0 °F 78% 30.08 in 10.0 mi Calm Calm - N/A   Partly Cloudy
11:53 PM -0.9 °F - -5.1 °F 83% 30.34 in 10.0 mi Calm Calm - N/A   Partly Cloudy